Location: Broletto
(44.6000°N, 10.5833°E)
Time: 07:19:05
(UTC+00:00)

Cosmos 1190 Rocket - Pass Details

Date: 18 April 2021
Orbit: 757 x 779 km, 74.1° (Epoch: 05 May)

Event Time Altitude Azimuth Distance (km) Brightness Sun altitude
Exits shadow 20:07:39 40° 120° (ESE) 1,122 4.3 -19.8°
Maximum altitude 20:08:14 41° 103° (ESE) 1,096 4.4 -19.8°
Drops below altitude 10° 20:13:07 10° 34° (NE) 2,304 6.5 -20.5°
Sets 20:15:35 0° 28° (NNE) 3,232 7.4 -20.8°
